This is the latest recevied weather packets stored in our database for station/object WB0RXX. If no packets are shown the sender has not sent any weather packets the latest 10 day(s).
| Time | Temp. | Humidity | Pressure | Rain* | Wind** | Luminosity | Snow |
|---|---|---|---|---|---|---|---|
| 1777687204 | 9.44° C | 47% | 1019.5 hPa | 0 mm | - | - | - |
| 1777686618 | 9.44° C | 47% | 1019.5 hPa | 0 mm | - | - | - |
| 1777686019 | 10° C | 45% | 1019.4 hPa | 0 mm | - | - | - |
| 1777685420 | 10.56° C | 44% | 1019.5 hPa | 0 mm | - | - | - |
| 1777684804 | 10.56° C | 42% | 1019.4 hPa | 0 mm | - | - | - |
| 1777684203 | 11.11° C | 42% | 1019.4 hPa | 0 mm | - | - | - |
| 1777683604 | 11.11° C | 41% | 1019.3 hPa | 0 mm | - | - | - |
| 1777683007 | 11.11° C | 42% | 1019.3 hPa | 0 mm | - | - | - |
| 1777682403 | 11.11° C | 39% | 1019.1 hPa | 0 mm | - | - | - |
| 1777681819 | 11.67° C | 37% | 1019.2 hPa | 0 mm | - | - | - |
| 1777681203 | 11.67° C | 40% | 1019 hPa | 0 mm | - | - | - |
| 1777680605 | 11.11° C | 40% | 1019 hPa | 0 mm | - | - | - |
| 1777680003 | 11.11° C | 41% | 1019 hPa | 0 mm | - | - | - |
| 1777679403 | 11.67° C | 39% | 1019.1 hPa | 0 mm | - | - | - |
| 1777678804 | 11.67° C | 40% | 1019.1 hPa | 0 mm | - | - | - |
| 1777678202 | 11.67° C | 39% | 1019.2 hPa | 0 mm | - | - | - |
| 1777677603 | 11.67° C | 39% | 1019.2 hPa | 0 mm | - | - | - |
| 1777677004 | 11.67° C | 37% | 1019.2 hPa | 0 mm | - | - | - |
| 1777676420 | 11.67° C | 39% | 1019.3 hPa | 0 mm | - | - | - |
| 1777675805 | 12.22° C | 37% | 1019.2 hPa | 0 mm | - | - | - |
| 1777675218 | 12.22° C | 36% | 1019.1 hPa | 0 mm | - | - | - |
| 1777674606 | 12.22° C | 36% | 1019.1 hPa | 0 mm | - | - | - |
| 1777674004 | 12.78° C | 35% | 1019.1 hPa | 0 mm | - | - | - |
| 1777673419 | 13.33° C | 36% | 1019.1 hPa | 0 mm | - | - | - |
| 1777672805 | 12.78° C | 35% | 1019.1 hPa | 0 mm | - | - | - |
* Rain latest hour (hover to see other rain measurements)
** Current wind speed in m/s (hover to see current wind gust speed)